Regional Weather Roundup
Issued by NWS Jackson, KY

Home | Current Version | Previous Version | Text Only | Print | Product List | Glossary On
Versions: 1 2 3 4 5 6 7 8 9 10 11 12 13 14 15 16 17 18 19 20 21 22 23 24 25 26 27 28 29 30 31 32 33 34 35 36 37 38 39 40 41 42 43 44 45 46 47 48 49 50
703
ASUS43 KJKL 122310
RWRJKL

EAST KENTUCKY HOURLY WEATHER ROUNDUP
NATIONAL WEATHER SERVICE JACKSON KY
600 PM EST FRI FEB 12 2016

NOTE: "FAIR" INDICATES FEW OR NO CLOUDS BELOW 12,000 FEET WITH
NO SIGNIFICANT WEATHER AND/OR OBSTRUCTIONS TO VISIBILITY.

* THESE REPORTS ARE NOT UNDER NWS QUALITY CONTROL AND MAY NOT
  REPORT WEATHER SUCH AS PRECIPITATION AND FOG.

KYZ079-080-083-085-087-088-110-112-115-119-120-130000
...EASTERN KENTUCKY...

CITY           SKY/WX    TMP DP  RH WIND       PRES   REMARKS
JACKSON        CLOUDY    29  20  69 SW7       30.09R WCI  22
LONDON         CLOUDY    30  22  72 W13       30.14R WCI  20
SOMERSET*      CLOUDY    30  25  80 W8        30.20R WCI  23
MONTICELLO*    CLOUDY    31  25  78 W10G20    30.21R WCI  22
WILLIAMSBURG*  CLOUDY    32  25  74 W6        30.17R WCI  26
MIDDLESBORO*   CLOUDY    32  26  77 NW6       30.15R WCI  26
HARLAN APT*    CLOUDY    30  23  74 SW7       30.11R WCI  23
HAZARD APT*    CLOUDY    27  19  74 W10       30.11R WCI  17
BLACK MTN*       N/A     19  19 100 CALM        N/A
BIG SANDY*     CLOUDY    31  21  67 W9        30.07R WCI  23
MOREHEAD APT*  CLOUDY    30  19  64 W8G16     30.12R WCI  23
$$

KYZ035-036-041-042-044-050-067-078-099-130000
...CENTRAL KENTUCKY...

CITY           SKY/WX    TMP DP  RH WIND       PRES   REMARKS
MT STERLING*   CLOUDY    30  21  69 NW13G21   30.14R WCI  20
DANVILLE*      CLOUDY    32  23  69 W14       30.16S WCI  22
RICHMOND*      CLOUDY    30  23  74 W8        30.13S WCI  23
LEXINGTON      CLOUDY    30  20  66 W17G23    30.14R WCI  18
FRANKFORT      CLOUDY    30  18  60 W10G21    30.16R WCI  21
$$

KYZ091>093-OHZ055-061-077-WVZ005-015-034-035-042-130000
...SOUTHERN OHIO/WEST VIRGINIA...

CITY           SKY/WX    TMP DP  RH WIND       PRES   REMARKS
COVINGTON      LGT SNOW  27  18  69 W16       30.12R WCI  15
COLUMBUS       LGT SNOW  24  14  65 W14       30.04R WCI  12
DAYTON         MOCLDY    23  18  81 W22G29    30.07R WCI   8
WILMINGTON     LGT SNOW  24  17  74 W14       30.06R WCI  12
HUNTINGTON     CLOUDY    31  15  52 W8        30.07R WCI  23
CHARLESTON     CLOUDY    29  13  51 W7        30.04R WCI  22
PINEVILLE*       N/A     29  20  69 MISG      30.06R
BECKLEY        CLOUDY    24  17  74 W12       29.94R WCI  13
$$

VAZ002-007-008-TNZ017-027-036-066-071-130000
...SOUTHWEST VIRGINIA/EAST TENNESSEE...

CITY           SKY/WX    TMP DP  RH WIND       PRES   REMARKS
BRISTOL        CLOUDY    32  28  85 W10       30.09R WCI  24
KNOXVILLE      CLOUDY    36  29  75 VRB7      30.16R WCI  30
OAK RIDGE      CLOUDY    37  27  67 W3        30.18R
CROSSVILLE     CLOUDY    33  26  75 NW9       30.14R WCI  25
NASHVILLE      MOCLDY    39  25  57 N12G20    30.25R WCI  32
$$

...KEY TO REMARKS...
VSB - VISIBILITY IN MILES
WCI - WIND CHILL INDEX
HX  - HEAT INDEX

$$




USA.gov is the U.S. government's official web portal to all federal, state and local government web resources and services.